EW5141 Weather Reports


time (UTC)temp
C
wind
direction
speed
KPH
gust
KPH
rain 1hr
cm
rain 24hr
cm
rain mn
cm
humidity
%
barometer
mb
20260505122051 15 206 4.8 12.9 0.00 0.00 0.00 75 1005.6
20260505121553 15 221 4.8 12.9 0.00 0.00 0.00 75 1005.7
20260505121050 15 219 4.8 14.5 0.00 0.00 0.00 75 1006.0
20260505120550 15 180 6.4 14.5 0.00 0.00 0.00 75 1005.8
20260505120049 15 215 4.8 12.9 0.00 0.00 0.00 75 1005.8
20260505115553 15 203 4.8 17.7 0.00 0.00 0.00 75 1005.9
20260505115049 15 212 8.0 19.3 0.00 0.00 0.00 75 1005.9
20260505114548 15 236 6.4 19.3 0.00 0.00 0.00 75 1005.8
20260505114047 15 215 3.2 14.5 0.00 0.00 0.00 75 1005.8
20260505113549 15 253 4.8 14.5 0.00 0.00 0.00 75 1005.8
20260505113046 15 211 4.8 12.9 0.00 0.00 0.00 75 1005.8
20260505112545 15 250 6.4 14.5 0.00 0.00 0.00 74 1005.8
20260505112044 15 239 6.4 16.1 0.00 0.00 0.00 74 1005.8
20260505111552 15 238 6.4 16.1 0.00 0.00 0.00 74 1005.7
20260505111044 15 223 6.4 14.5 0.00 0.00 0.00 74 1005.7
20260505110542 15 236 6.4 20.9 0.00 0.00 0.00 74 1005.7
20260505102034 16 263 9.7 17.7 0.00 0.00 0.00 71 1005.5
20260505101533 16 221 6.4 17.7 0.00 0.00 0.00 71 1005.4
20260505101032 15 278 8.0 20.9 0.00 0.00 0.00 71 1005.4
20260505100533 15 252 9.7 20.9 0.00 0.00 0.00 71 1005.3
20260505100041 15 246 4.8 16.1 0.00 0.00 0.00 71 1005.2
20260505095533 15 216 6.4 25.7 0.00 0.00 0.00 71 1005.2
20260505095029 15 251 12.9 25.7 0.00 0.00 0.00 71 1005.2
20260505094528 16 267 6.4 22.5 0.00 0.00 0.00 71 1005.2
20260505094027 16 211 9.7 22.5 0.00 0.00 0.00 71 1005.0
20260505093526 16 256 8.0 20.9 0.00 0.00 0.00 71 1005.0
20260505093026 16 259 4.8 22.5 0.00 0.00 0.00 71 1004.9
20260505092525 16 225 8.0 17.7 0.00 0.00 0.00 71 1004.9
20260505092025 16 223 9.7 19.3 0.00 0.00 0.00 71 1004.9
20260505091524 16 250 6.4 19.3 0.00 0.00 0.00 71 1004.8
20260505091024 16 263 11.3 19.3 0.00 0.00 0.00 70 1004.9
20260505090524 16 261 9.7 19.3 0.00 0.00 0.00 70 1004.8
20260505090036 16 239 9.7 19.3 0.00 0.00 0.00 70 1004.8
20260505085521 16 236 9.7 17.7 0.00 0.00 0.00 70 1004.8
20260505085021 16 211 4.8 17.7 0.00 0.00 0.00 70 1004.8
20260505084529 16 265 9.7 22.5 0.00 0.00 0.00 69 1004.7
20260505084019 16 282 11.3 22.5 0.00 0.00 0.00 69 1004.7
20260505083519 16 227 6.4 19.3 0.00 0.00 0.00 69 1004.7
20260505083032 16 227 8.0 19.3 0.00 0.00 0.00 69 1004.6
20260505082518 16 217 11.3 24.1 0.00 0.00 0.00 69 1004.5
20260505082018 16 229 9.7 24.1 0.00 0.00 0.00 69 1004.5
20260505081522 16 254 12.9 25.7 0.00 0.00 0.00 68 1004.4
20260505081017 16 266 14.5 25.7 0.00 0.00 0.00 68 1004.5
20260505080517 16 245 14.5 25.7 0.00 0.00 0.00 68 1004.4
20260505080028 16 252 12.9 29.0 0.00 0.00 0.00 68 1004.4
20260505075515 16 246 12.9 29.0 0.00 0.00 0.00 67 1004.3
20260505075014 16 251 12.9 25.7 0.00 0.00 0.00 67 1004.3
20260505074514 17 244 9.7 27.4 0.00 0.00 0.00 67 1004.3
20260505074013 17 225 11.3 27.4 0.00 0.00 0.00 67 1004.3
20260505073513 17 233 12.9 24.1 0.00 0.00 0.00 67 1004.2
20260505073013 17 211 8.0 25.7 0.00 0.00 0.00 67 1004.2
20260505072512 17 216 9.7 25.7 0.00 0.00 0.00 67 1004.0
20260505072011 16 242 9.7 17.7 0.00 0.00 0.00 67 1004.0
20260505071522 17 253 8.0 24.1 0.00 0.00 0.00 67 1004.0
20260505071010 17 226 9.7 25.7 0.00 0.00 0.00 67 1004.0
20260505070510 17 221 9.7 25.7 0.00 0.00 0.00 67 1004.0
20260505070010 17 236 9.7 30.6 0.00 0.00 0.00 67 1004.1
20260505065509 17 233 9.7 30.6 0.00 0.00 0.00 67 1004.1
20260505065008 17 236 8.0 19.3 0.00 0.00 0.00 67 1004.0
20260505064508 17 203 12.9 19.3 0.00 0.00 0.00 67 1004.0
20260505064007 17 246 9.7 25.7 0.00 0.00 0.00 67 1004.0
20260505063507 17 217 11.3 25.7 0.00 0.00 0.00 67 1004.1
20260505063007 17 252 8.0 20.9 0.00 0.00 0.00 68 1004.1
20260505062506 17 211 9.7 30.6 0.00 0.00 0.00 68 1004.2
20260505062004 17 208 14.5 30.6 0.00 0.00 0.00 69 1004.2
20260505061512 17 213 8.0 19.3 0.00 0.00 0.00 69 1004.2
20260505061004 17 229 6.4 19.3 0.00 0.00 0.00 69 1004.3
20260505060504 17 212 8.0 17.7 0.00 0.00 0.00 69 1004.4
20260505055600 17 242 6.4 22.5 0.00 0.00 0.00 69 1004.5
20260505055059 17 235 11.3 22.5 0.00 0.00 0.00 69 1004.6
20260505054621 17 216 8.0 22.5 0.00 0.00 0.00 69 1004.6
20260505054057 17 232 8.0 22.5 0.00 0.00 0.00 69 1004.8
20260505053555 17 217 9.7 19.3 0.00 0.00 0.00 69 1004.8
20260505053055 17 225 9.7 16.1 0.00 0.00 0.00 69 1004.8
20260505052555 17 220 9.7 16.1 0.00 0.00 0.00 69 1004.9
20260505052155 17 225 8.0 16.1 0.00 0.00 0.00 69 1004.9
20260505051553 17 227 8.0 16.1 0.00 0.00 0.00 69 1005.0
20260505051053 17 188 8.0 17.7 0.00 0.00 0.00 68 1005.0
20260505050553 17 202 9.7 20.9 0.00 0.00 0.00 68 1005.0
20260505041544 16 236 6.4 16.1 0.00 0.00 0.00 70 1005.1
20260505041045 16 240 4.8 16.1 0.00 0.00 0.00 70 1005.0
20260505040543 16 219 6.4 16.1 0.00 0.00 0.00 70 1005.1
20260505040044 16 253 6.4 14.5 0.00 0.00 0.00 70 1005.1
20260505035543 16 231 6.4 14.5 0.00 0.00 0.00 70 1005.2
20260505035042 16 234 8.0 17.7 0.00 0.00 0.00 70 1005.2
20260505034545 16 242 8.0 17.7 0.00 0.00 0.00 70 1005.2
20260505034041 16 211 8.0 16.1 0.00 0.00 0.00 71 1005.3
20260505033541 16 209 9.7 17.7 0.00 0.00 0.00 70 1005.2
20260505033049 16 197 6.4 12.9 0.00 0.00 0.00 71 1005.2
20260505032541 16 223 4.8 16.1 0.00 0.00 0.00 70 1005.3
20260505032044 16 225 6.4 20.9 0.00 0.00 0.00 70 1005.4
20260505031540 16 248 9.7 20.9 0.00 0.00 0.00 70 1005.4
20260505031041 16 208 6.4 17.7 0.00 0.00 0.00 70 1005.4
20260505030543 16 209 8.0 17.7 0.00 0.00 0.00 70 1005.4
20260505030043 16 221 6.4 16.1 0.00 0.00 0.00 70 1005.4
20260505025541 16 224 6.4 16.1 0.00 0.00 0.00 70 1005.4
20260505025043 16 224 6.4 14.5 0.00 0.00 0.00 69 1005.4
20260505024603 16 239 6.4 12.9 0.00 0.00 0.00 69 1005.4
20260505024042 16 253 4.8 16.1 0.00 0.00 0.00 69 1005.3
20260505023539 16 225 4.8 16.1 0.00 0.00 0.00 69 1005.4
20260505023041 16 218 4.8 16.1 0.00 0.00 0.00 69 1005.4
20260505022539 16 238 4.8 11.3 0.00 0.00 0.00 68 1005.4
20260505022039 16 217 3.2 11.3 0.00 0.00 0.00 68 1005.6
20260505021551 16 243 3.2 11.3 0.00 0.00 0.00 68 1005.6
20260505021039 16 257 1.6 11.3 0.00 0.00 0.00 67 1005.6
20260505020538 16 207 4.8 11.3 0.00 0.00 0.00 67 1005.6
20260505020045 16 242 4.8 11.3 0.00 0.00 0.00 67 1005.7
20260505015538 16 220 4.8 12.9 0.00 0.00 0.00 67 1005.6
20260505015038 16 241 4.8 14.5 0.00 0.00 0.00 67 1005.5
20260505014538 17 225 4.8 14.5 0.00 0.00 0.00 66 1005.5
20260505014037 17 228 6.4 14.5 0.00 0.00 0.00 66 1005.4
20260505013540 17 256 4.8 12.9 0.00 0.00 0.00 66 1005.4
20260505013037 17 205 4.8 14.5 0.00 0.00 0.00 66 1005.4
20260505012537 17 180 6.4 14.5 0.00 0.00 0.00 65 1005.4
20260505012037 17 226 4.8 11.3 0.00 0.00 0.00 65 1005.3
20260505011548 17 248 4.8 14.5 0.00 0.00 0.00 65 1005.3
20260505011037 17 236 4.8 14.5 0.00 0.00 0.00 65 1005.4
20260505010536 17 236 4.8 11.3 0.00 0.00 0.00 64 1005.4
20260505010037 17 229 4.8 14.5 0.00 0.00 0.00 64 1005.3
20260505005536 17 225 6.4 14.5 0.00 0.00 0.00 64 1005.2
20260505005036 17 229 6.4 16.1 0.00 0.00 0.00 64 1005.2
20260505004542 17 259 4.8 16.1 0.00 0.00 0.00 63 1005.1
20260505004034 17 213 6.4 14.5 0.00 0.00 0.00 63 1005.1
20260505003535 17 240 8.0 19.3 0.00 0.00 0.00 62 1005.1
20260505003034 17 229 6.4 19.3 0.00 0.00 0.00 62 1005.1
20260505002534 17 248 6.4 17.7 0.00 0.00 0.00 62 1005.0
20260505002034 18 216 8.0 22.5 0.00 0.00 0.00 61 1005.0
20260505001534 18 244 12.9 22.5 0.00 0.00 0.00 61 1004.9
20260505001035 18 229 9.7 22.5 0.00 0.00 0.00 61 1004.8
20260505000535 18 239 9.7 29.0 0.00 0.00 0.00 60 1004.8
20260505000033 18 234 14.5 29.0 0.00 0.00 0.00 60 1004.9
20260504235534 18 242 11.3 30.6 0.00 0.00 0.00 59 1004.9
20260504235036 18 244 12.9 38.6 0.00 0.00 0.00 59 1004.9
20260504234634 18 235 17.7 41.8 0.00 0.00 0.00 58 1005.0
20260504234038 19 222 24.1 43.5 0.00 0.00 0.00 58 1004.8
20260504233532 19 243 11.3 35.4 0.00 0.00 0.00 58 1004.9
20260504233037 19 248 14.5 35.4 0.00 0.00 0.00 57 1004.8
20260504232531 19 257 14.5 29.0 0.00 0.00 0.00 57 1004.7
20260504232031 20 261 9.7 41.8 0.00 0.00 0.00 56 1004.8
20260504231530 20 231 14.5 41.8 0.00 0.00 0.00 56 1004.8
20260504231030 20 234 12.9 25.7 0.00 0.00 0.00 56 1004.8
20260504230529 20 235 11.3 30.6 0.00 0.00 0.00 57 1004.9
20260504230029 20 205 16.1 30.6 0.00 0.00 0.00 56 1005.0
20260504225532 20 254 11.3 27.4 0.00 0.00 0.00 57 1005.0
20260504225030 20 249 11.3 27.4 0.00 0.00 0.00 56 1005.0
20260504224528 20 249 12.9 25.7 0.00 0.00 0.00 56 1005.1
20260504224028 20 227 8.0 25.7 0.00 0.00 0.00 57 1005.1
20260504223528 20 212 12.9 25.7 0.00 0.00 0.00 55 1005.1
20260504223034 20 244 11.3 27.4 0.00 0.00 0.00 56 1005.1
20260504222528 20 271 14.5 35.4 0.00 0.00 0.00 55 1005.1
20260504222027 20 205 17.7 35.4 0.00 0.00 0.00 54 1005.0
20260504221533 20 231 17.7 33.8 0.00 0.00 0.00 55 1005.1
20260504221026 20 232 16.1 35.4 0.00 0.00 0.00 55 1005.0
20260504220528 20 217 19.3 35.4 0.00 0.00 0.00 55 1005.1
20260504220026 21 237 19.3 38.6 0.00 0.00 0.00 55 1005.1
20260504215526 21 259 17.7 43.5 0.00 0.00 0.00 54 1005.1
20260504215025 21 248 14.5 43.5 0.00 0.00 0.00 55 1005.2
20260504214526 21 265 19.3 37.0 0.00 0.00 0.00 54 1005.1
20260504214024 21 266 14.5 48.3 0.00 0.00 0.00 54 1005.1
20260504213525 21 196 20.9 48.3 0.00 0.00 0.00 54 1005.1
20260504213023 21 177 16.1 40.2 0.00 0.00 0.00 56 1005.1
20260504212523 20 250 20.9 40.2 0.00 0.00 0.00 54 1005.3
20260504212022 21 260 20.9 33.8 0.00 0.00 0.00 54 1005.2
20260504211522 21 252 16.1 27.4 0.00 0.00 0.00 55 1005.4
20260504211122 21 201 12.9 33.8 0.00 0.00 0.00 55 1005.3
20260504210526 20 252 19.3 33.8 0.00 0.00 0.00 55 1005.4
20260504210023 21 219 14.5 30.6 0.00 0.00 0.00 54 1005.4
20260504205524 21 261 14.5 29.0 0.00 0.00 0.00 54 1005.4
20260504205021 21 245 16.1 32.2 0.00 0.00 0.00 54 1005.4
20260504204524 20 244 17.7 33.8 0.00 0.00 0.00 55 1005.4
20260504204020 21 250 14.5 33.8 0.00 0.00 0.00 56 1005.4
20260504203520 20 238 14.5 38.6 0.00 0.00 0.00 56 1005.3
20260504203019 20 226 19.3 38.6 0.00 0.00 0.00 55 1005.3
20260504202519 20 250 20.9 38.6 0.00 0.00 0.00 54 1005.4
20260504202018 21 227 20.9 38.6 0.00 0.00 0.00 54 1005.4
20260504201518 21 240 12.9 30.6 0.00 0.00 0.00 54 1005.4
20260504201017 21 218 12.9 30.6 0.00 0.00 0.00 56 1005.5
20260504200519 21 226 12.9 25.7 0.00 0.00 0.00 54 1005.4
20260504200018 21 264 12.9 30.6 0.00 0.00 0.00 54 1005.6
20260504195516 21 251 17.7 33.8 0.00 0.00 0.00 54 1005.6
20260504195015 21 211 11.3 33.8 0.00 0.00 0.00 54 1005.7
20260504194514 21 210 11.3 33.8 0.00 0.00 0.00 56 1005.7
20260504194014 20 196 14.5 35.4 0.00 0.00 0.00 55 1005.7
20260504193512 20 246 17.7 35.4 0.00 0.00 0.00 57 1005.8
20260504193010 20 207 11.3 27.4 0.00 0.00 0.00 56 1006.0
20260504192510 20 234 12.9 30.6 0.00 0.00 0.00 57 1006.1
20260504192009 20 246 16.1 30.6 0.00 0.00 0.00 55 1006.2
20260504191513 20 207 11.3 30.6 0.00 0.00 0.00 57 1006.2
20260504191108 20 180 14.5 35.4 0.00 0.00 0.00 56 1006.2
20260504190506 20 248 9.7 33.8 0.00 0.00 0.00 57 1006.4
20260504190006 20 227 20.9 33.8 0.00 0.00 0.00 55 1006.4
20260504185504 20 234 9.7 30.6 0.00 0.00 0.00 57 1006.5
20260504185003 20 261 8.0 32.2 0.00 0.00 0.00 59 1006.5
20260504184503 20 244 17.7 30.6 0.00 0.00 0.00 56 1006.5
20260504184002 20 234 16.1 30.6 0.00 0.00 0.00 56 1006.6
20260504183600 20 228 6.4 25.7 0.00 0.00 0.00 60 1006.6
20260504183105 19 241 12.9 32.2 0.00 0.00 0.00 57 1006.7
20260504182557 19 247 17.7 32.2 0.00 0.00 0.00 56 1006.5
20260504182057 19 236 11.3 29.0 0.00 0.00 0.00 58 1006.7
20260504181556 19 236 12.9 27.4 0.00 0.00 0.00 57 1006.7
20260504181056 19 284 16.1 27.4 0.00 0.00 0.00 57 1006.7
20260504180556 19 213 12.9 29.0 0.00 0.00 0.00 58 1006.8
20260504180054 19 217 14.5 29.0 0.00 0.00 0.00 57 1006.9
20260504175553 18 241 9.7 27.4 0.00 0.00 0.00 59 1007.1
20260504175052 18 225 6.4 25.7 0.00 0.00 0.00 59 1007.1
20260504174552 18 225 12.9 25.7 0.00 0.00 0.00 58 1007.0
20260504174051 18 248 12.9 27.4 0.00 0.00 0.00 59 1007.1
20260504173549 18 170 11.3 27.4 0.00 0.00 0.00 59 1007.1
20260504173048 18 229 9.7 29.0 0.00 0.00 0.00 58 1007.3
20260504172548 18 246 12.9 30.6 0.00 0.00 0.00 58 1007.3
20260504172047 18 214 14.5 30.6 0.00 0.00 0.00 58 1007.4
20260504171547 18 258 9.7 30.6 0.00 0.00 0.00 60 1007.3
20260504171045 18 211 12.9 32.2 0.00 0.00 0.00 58 1007.5
20260504170545 18 223 14.5 32.2 0.00 0.00 0.00 59 1007.5
20260504151020 15 185 6.4 19.3 0.00 0.00 0.00 61 1008.8
20260504150519 15 207 9.7 19.3 0.00 0.00 0.00 61 1008.8
20260504141004 13 250 14.5 30.6 0.00 0.00 0.00 62 1009.3
20260504140507 13 244 14.5 22.5 0.00 0.00 0.00 62 1009.3
20260504130548 12 269 8.0 25.7 0.00 0.00 0.00 65 1009.6